Location: McCall
(45.0000°N, 116.0000°W)
Time: 04:06:34
(UTC-06:00)

Amateur Radio Satellites - All Passes

Search period start: 28 April 2017 03:36
Search period end: 29 April 2017 03:36
Location: McCall, 45.0000°N, 116.0000°W

Satellite Date Start Highest point End Downlink Frequencies (MHz)
Time Altitude Azimuth
PCSat 28 Apr 03:38:35 03:44:01 79° 303° (WNW) 03:49:29 145.827
ITUPSAT 1 28 Apr 03:45:58 03:50:43 85° 76° (ENE) 03:55:30 437.325
MOZHAYETS 4 28 Apr 04:21:42 04:26:16 88° 260° (W) 04:30:51
KKS-1 28 Apr 04:23:59 04:27:20 21° 63° (ENE) 04:30:39 437.445
ITAMSAT 1 28 Apr 04:33:10 04:37:51 33° 97° (E) 04:42:31 435.822/435.867
BEESAT 28 Apr 04:42:55 04:46:58 28° 265° (W) 04:51:02 436.000
Oscar 19 28 Apr 04:43:55 04:47:52 22° 298° (WNW) 04:51:49 437.125/150
AO-7 28 Apr 04:49:51 04:57:41 43° 99° (E) 05:05:29 .
STARS 28 Apr 04:51:41 04:54:40 18° 62° (ENE) 04:57:39 437.465
Gurwin Techsat 1B 28 Apr 04:57:41 05:02:08 28° 296° (WNW) 05:06:35 435.225
YUBILEINY 28 Apr 05:12:56 05:21:28 65° 92° (E) 05:30:04 435.215
CUBESAT XI-V 28 Apr 05:16:49 05:21:24 62° 73° (ENE) 05:26:03 437.345
PCSat 28 Apr 05:24:38 05:28:18 18° 324° (NW) 05:31:59 145.827
ITUPSAT 1 28 Apr 05:27:43 05:29:10 11° 272° (W) 05:30:38 437.325
KKS-1 28 Apr 05:59:18 06:03:35 44° 261° (W) 06:07:53 437.445
ITAMSAT 1 28 Apr 06:12:40 06:17:17 34° 294° (WNW) 06:21:54 435.822/435.867
RS-15 28 Apr 06:17:41 06:25:00 19° 96° (E) 06:32:23 29.354- 29.394
STARS 28 Apr 06:26:20 06:30:38 51° 260° (W) 06:34:56 437.465
STRAND 1 28 Apr 06:34:34 06:36:39 12° 56° (NE) 06:38:44 437.568
SO-50 28 Apr 06:37:11 06:41:06 28° 115° (ESE) 06:44:59 436.795
AO-7 28 Apr 06:42:40 06:50:31 49° 299° (WNW) 06:58:23 .
DOVE 4 28 Apr 06:54:14 06:58:02 25° 93° (E) 07:01:39 437.250
M-CUBED/EXP-1 PRIME 28 Apr 06:56:30 07:00:05 22° 58° (ENE) 07:03:39 437.505
CUBESAT XI-V 28 Apr 06:56:31 06:59:12 15° 271° (W) 07:01:56 437.345
YUBILEINY 28 Apr 07:11:27 07:18:55 31° 294° (WNW) 07:26:26 435.215
CUTE-I 28 Apr 07:32:06 07:36:58 35° 97° (E) 07:41:47 437.470
XW-2D 28 Apr 07:32:53 07:36:29 39° 98° (E) 07:40:05 145.860 - 145.880
XW-2B 28 Apr 07:39:49 07:43:30 45° 99° (E) 07:47:11 145.730 - 145.750
KAITUO 1B 28 Apr 07:45:18 07:48:55 42° 98° (E) 07:52:32 145.475/437.950
XW-2C 28 Apr 07:51:44 07:55:33 65° 101° (E) 07:59:21 145.795 - 145.815
LilacSat-2 28 Apr 07:52:44 07:56:34 70° 102° (ESE) 08:00:25 437.200
HO-68 28 Apr 07:58:10 08:03:06 19° 89° (E) 08:08:01 435.675
XW-2A 28 Apr 08:07:19 08:07:38 10° 90° (E) 08:07:57 145.665 - 145.685
STRAND 1 28 Apr 08:09:54 08:15:00 81° 74° (ENE) 08:20:08 437.568
ISS 28 Apr 08:10:05 08:11:55 14° 133° (SE) 08:13:46 437.550
XW-2F 28 Apr 08:15:58 08:19:45 66° 285° (WNW) 08:23:32 145.980 - 146.000
SO-50 28 Apr 08:17:03 08:21:25 41° 313° (NW) 08:25:45 436.795
NUDT-PHONESAT 28 Apr 08:22:10 08:25:52 68° 285° (WNW) 08:29:34 437.300
RS-15 28 Apr 08:23:11 08:35:09 72° 118° (ESE) 08:47:27 29.354- 29.394
M-CUBED/EXP-1 PRIME 28 Apr 08:29:38 08:34:09 51° 255° (WSW) 08:38:44 437.505
DOVE 4 28 Apr 08:31:38 08:35:49 34° 292° (WNW) 08:39:46 437.250
AO-7 28 Apr 08:37:49 08:41:19 13° 322° (NW) 08:44:49 .
AAUSAT CUBESAT 2 28 Apr 08:56:54 08:59:20 15° 90° (E) 09:01:46 437.432
CUBEBUG 2 28 Apr 09:00:21 09:03:43 23° 94° (E) 09:07:06 437.445
XW-2D 28 Apr 09:07:51 09:10:24 17° 295° (WNW) 09:12:58 145.860 - 145.880
Tancredo 1 28 Apr 09:09:52 09:12:56 61° 145° (SE) 09:16:00 437.200
FO-29 28 Apr 09:10:20 09:11:12 10° 54° (NE) 09:12:04 435.910
CUTE 1.7 + AOD 2 28 Apr 09:11:53 09:16:11 68° 102° (ESE) 09:20:27 437.475
CUTE-I 28 Apr 09:12:13 09:16:58 34° 294° (WNW) 09:21:41 437.470
XW-2B 28 Apr 09:15:05 09:17:21 15° 296° (WNW) 09:19:37 145.730 - 145.750
KAITUO 1B 28 Apr 09:20:15 09:22:37 16° 295° (WNW) 09:24:58 145.475/437.950
UNISAT 6 28 Apr 09:26:43 09:28:05 11° 59° (ENE) 09:29:27 437.425
XW-2C 28 Apr 09:27:56 09:29:14 11° 298° (WNW) 09:30:31 145.795 - 145.815
SEEDS 28 Apr 09:28:28 09:32:43 67° 101° (E) 09:36:57 437.485
LilacSat-2 28 Apr 09:29:16 09:30:18 11° 299° (WNW) 09:31:19 437.200
ZACube-1 28 Apr 09:34:58 09:38:07 20° 93° (E) 09:41:18 437.345
XW-2A 28 Apr 09:37:25 09:40:40 48° 287° (WNW) 09:43:55 145.665 - 145.685
AO-73 28 Apr 09:40:41 09:43:54 21° 93° (E) 09:47:10 145.935
HO-68 28 Apr 09:44:25 09:51:39 84° 288° (WNW) 09:58:52 435.675
ISS 28 Apr 09:44:43 09:48:00 86° 332° (NNW) 09:51:17 437.550
STRAND 1 28 Apr 09:52:26 09:54:48 13° 272° (W) 09:57:10 437.568
PRISM 28 Apr 09:53:38 09:57:19 32° 68° (ENE) 10:01:02 437.425
Oscar 11 28 Apr 09:53:52 09:57:27 24° 94° (E) 10:01:01 .
SO-50 28 Apr 10:01:58 10:03:05 11° 335° (NNW) 10:04:13 436.795
UWE-3 28 Apr 10:19:09 10:23:21 81° 283° (WNW) 10:27:37 435.000/436.395/437.385
AAUSAT CUBESAT 2 28 Apr 10:31:01 10:35:06 52° 287° (WNW) 10:39:10 437.432
CUBEBUG 2 28 Apr 10:36:40 10:40:24 32° 291° (WNW) 10:44:10 437.445
RS-15 28 Apr 10:36:59 10:48:37 47° 325° (NW) 11:00:26 29.354- 29.394
TIGRISAT 28 Apr 10:38:07 10:42:21 53° 73° (ENE) 10:46:33 435.000
PCSat 28 Apr 10:41:43 10:46:11 25° 42° (NE) 10:50:37 145.827
Tancredo 1 28 Apr 10:46:10 10:49:00 30° 345° (NNW) 10:51:48 437.200
FO-29 28 Apr 10:49:19 10:55:25 63° 72° (ENE) 11:00:52 435.910
CUTE 1.7 + AOD 2 28 Apr 10:49:20 10:51:28 14° 299° (WNW) 10:53:37 437.475
DELFI C3 28 Apr 10:58:22 11:02:04 34° 97° (E) 11:05:42 145.870
UNISAT 6 28 Apr 10:59:47 11:04:10 84° 255° (WSW) 11:08:29 437.425
O/OREOS (USA 219) 28 Apr 11:00:39 11:05:08 56° 109° (ESE) 11:09:40 437.305
SEEDS 28 Apr 11:05:46 11:07:52 14° 299° (WNW) 11:09:59 437.485
ZACube-1 28 Apr 11:10:36 11:14:32 39° 290° (WNW) 11:18:32 437.345
OBJECT BX 28 Apr 11:11:45 11:15:08 34° 97° (E) 11:18:30 145.990 - 145.960
AO-73 28 Apr 11:16:21 11:20:16 37° 290° (WNW) 11:24:14 145.935
NANOSAT C BR1 28 Apr 11:18:54 11:20:34 12° 60° (ENE) 11:22:16 145.865
ISS 28 Apr 11:21:56 11:24:48 28° 349° (N) 11:27:41 437.550
AIST 2D 28 Apr 11:26:52 11:29:35 22° 68° (ENE) 11:32:18 435.315
PRISM 28 Apr 11:29:13 11:32:37 24° 265° (W) 11:36:04 437.425
Oscar 11 28 Apr 11:29:42 11:33:38 34° 291° (WNW) 11:37:33 .
HO-68 28 Apr 11:33:33 11:38:23 20° 308° (NW) 11:43:14 435.675
EO-79 28 Apr 11:45:56 11:49:21 24° 66° (ENE) 11:52:45 145.935-145.965
DUCHIFAT 1 28 Apr 11:46:00 11:49:05 20° 65° (ENE) 11:52:12 145.980
LO-87 28 Apr 12:09:34 12:12:28 23° 95° (E) 12:15:20 145.935 - 145.965
TIGRISAT 28 Apr 12:16:47 12:19:22 15° 269° (W) 12:21:55 435.000
AO-85 28 Apr 12:18:30 12:20:56 15° 112° (ESE) 12:23:18 145.980
Tancredo 1 28 Apr 12:22:54 12:25:30 23° 5° (N) 12:28:04 437.200
PCSat 28 Apr 12:24:38 12:30:02 66° 243° (WSW) 12:35:24 145.827
POLYITAN 1 28 Apr 12:24:54 12:29:03 62° 73° (ENE) 12:33:13 437.675
QB50P2 28 Apr 12:31:33 12:35:46 80° 76° (ENE) 12:40:00 145.880/145.840
DELFI C3 28 Apr 12:33:34 12:36:38 21° 294° (WNW) 12:39:41 145.870
FO-29 28 Apr 12:36:28 12:40:51 20° 267° (W) 12:44:57 435.910
BUGSAT 1 28 Apr 12:39:37 12:42:59 25° 67° (ENE) 12:46:19 437.445
O/OREOS (USA 219) 28 Apr 12:41:33 12:44:55 20° 309° (NW) 12:48:18 437.305
OBJECT BX 28 Apr 12:46:05 12:48:35 18° 294° (WNW) 12:51:04 145.990 - 145.960
Oscar 19 28 Apr 12:46:13 12:49:03 15° 57° (ENE) 12:51:53 437.125/150
NANOSAT C BR1 28 Apr 12:51:31 12:55:43 74° 257° (WSW) 12:59:55 145.865
RS-15 28 Apr 12:54:50 13:05:15 30° 358° (N) 13:15:34 29.354- 29.394
ISS 28 Apr 12:59:05 13:01:56 27° 10° (N) 13:04:48 437.550
AIST 2D 28 Apr 12:59:50 13:02:42 24° 265° (W) 13:05:35 435.315
Gurwin Techsat 1B 28 Apr 13:03:57 13:06:27 14° 56° (NE) 13:08:57 435.225
ESTCUBE 1 28 Apr 13:10:29 13:15:02 64° 102° (ESE) 13:19:31 437.505/2401.250
VELOX 1 28 Apr 13:15:47 13:19:08 21° 93° (E) 13:22:27 145.980
BEESAT 3 28 Apr 13:18:50 13:19:55 11° 108° (ESE) 13:21:01 437.485
DUCHIFAT 1 28 Apr 13:20:35 13:24:31 39° 262° (W) 13:28:28 145.980
EO-79 28 Apr 13:21:10 13:24:58 32° 263° (W) 13:28:47 145.935-145.965
SO-50 28 Apr 13:27:14 13:28:38 11° 26° (NNE) 13:30:02 436.795
LO-87 28 Apr 13:42:56 13:45:52 24° 291° (WNW) 13:48:45 145.935 - 145.965
AO-85 28 Apr 13:56:44 14:00:56 60° 308° (NW) 14:04:54 145.980
Tancredo 1 28 Apr 13:58:47 14:01:50 53° 24° (NNE) 14:04:53 437.200
DX 1 28 Apr 14:00:56 14:04:27 23° 94° (E) 14:07:56 434.975-435.025
AO-7 28 Apr 14:02:19 14:07:32 19° 45° (NE) 14:12:46 .
SPROUT 28 Apr 14:02:33 14:06:45 61° 100° (E) 14:10:57 437.525
POLYITAN 1 28 Apr 14:03:22 14:05:14 13° 270° (W) 14:07:07 437.675
50 SAT 28 Apr 14:03:27 14:06:42 35° 98° (E) 14:09:54 437.505
BUGSAT 1 28 Apr 14:14:33 14:18:13 30° 263° (W) 14:21:53 437.445
Oscar 19 28 Apr 14:22:29 14:27:39 86° 255° (WSW) 14:32:53 437.125/150
ISS 28 Apr 14:35:30 14:38:46 81° 30° (NNE) 14:42:02 437.550
Gurwin Techsat 1B 28 Apr 14:40:15 14:45:34 83° 74° (ENE) 14:50:55 435.225
ESTCUBE 1 28 Apr 14:48:35 14:51:20 16° 299° (WNW) 14:54:04 437.505/2401.250
VELOX 1 28 Apr 14:51:35 14:55:45 41° 291° (WNW) 14:59:53 145.980
BEESAT 3 28 Apr 14:52:56 14:56:53 77° 306° (NW) 15:00:55 437.485
BEESAT 2 28 Apr 14:56:40 15:00:27 45° 119° (ESE) 15:04:19 435.950
UKube-1 28 Apr 14:59:12 15:03:31 67° 102° (ESE) 15:07:48 .
SO-50 28 Apr 15:05:56 15:10:15 44° 48° (NE) 15:14:35 436.795
RS-15 28 Apr 15:10:30 15:22:07 43° 32° (NNE) 15:33:18 29.354- 29.394
YUBILEINY 28 Apr 15:20:42 15:28:37 36° 68° (ENE) 15:36:30 435.215
Tancredo 1 28 Apr 15:35:02 15:37:34 23° 222° (SW) 15:40:04 437.200
DX 1 28 Apr 15:36:44 15:40:43 35° 291° (WNW) 15:44:40 434.975-435.025
50 SAT 28 Apr 15:37:11 15:39:21 16° 295° (WNW) 15:41:31 437.505
SPROUT 28 Apr 15:39:51 15:42:11 15° 299° (WNW) 15:44:31 437.525
AO-85 28 Apr 15:40:48 15:42:06 11° 328° (NNW) 15:43:23 145.980
ITUPSAT 1 28 Apr 15:45:19 15:48:39 19° 92° (E) 15:51:59 437.325
AO-7 28 Apr 15:50:41 15:58:53 69° 66° (ENE) 16:07:06 .
ITAMSAT 1 28 Apr 15:52:52 15:57:59 63° 72° (ENE) 16:03:07 435.822/435.867
Oscar 19 28 Apr 16:06:16 16:07:44 11° 273° (W) 16:09:12 437.125/150
ISS 28 Apr 16:12:54 16:14:53 15° 226° (SW) 16:16:52 437.550
MOZHAYETS 4 28 Apr 16:15:28 16:18:45 19° 92° (E) 16:22:02
Gurwin Techsat 1B 28 Apr 16:23:33 16:26:10 14° 272° (W) 16:28:48 435.225
BEESAT 3 28 Apr 16:33:09 16:35:10 13° 326° (NW) 16:37:11 437.485
BEESAT 2 28 Apr 16:35:12 16:38:26 23° 319° (NW) 16:41:41 435.950
UKube-1 28 Apr 16:36:45 16:39:01 14° 300° (WNW) 16:41:16 .
BEESAT 28 Apr 16:39:55 16:44:41 63° 102° (ESE) 16:49:24 436.000
SO-50 28 Apr 16:46:51 16:50:29 24° 246° (WSW) 16:54:07 436.795
CUBESAT XI-V 28 Apr 17:12:53 17:15:17 14° 89° (E) 17:17:41 437.345
YUBILEINY 28 Apr 17:17:19 17:25:48 57° 270° (W) 17:34:18 435.215
CUTE-I 28 Apr 17:20:18 17:21:54 11° 54° (NE) 17:23:30 437.470
ITUPSAT 1 28 Apr 17:22:08 17:26:48 53° 289° (WNW) 17:31:27 437.325
RS-15 28 Apr 17:23:38 17:35:55 80° 239° (WSW) 17:47:36 29.354- 29.394
ITAMSAT 1 28 Apr 17:34:26 17:37:53 18° 269° (W) 17:41:21 435.822/435.867
AO-7 28 Apr 17:45:21 17:52:15 29° 266° (W) 17:59:12 .
KKS-1 28 Apr 17:48:17 17:52:08 29° 96° (E) 17:55:58 437.445
MOZHAYETS 4 28 Apr 17:51:43 17:56:10 48° 289° (WNW) 18:00:37
DOVE 4 28 Apr 18:00:19 18:05:06 36° 68° (ENE) 18:09:46 437.250
STARS 28 Apr 18:14:00 18:17:32 23° 94° (E) 18:21:02 437.465
XW-2D 28 Apr 18:16:14 18:19:19 25° 68° (ENE) 18:22:27 145.860 - 145.880
BEESAT 28 Apr 18:18:53 18:21:58 17° 299° (WNW) 18:25:03 436.000
XW-2B 28 Apr 18:23:03 18:26:18 29° 69° (ENE) 18:29:34 145.730 - 145.750
KAITUO 1B 28 Apr 18:27:24 18:30:30 26° 68° (ENE) 18:33:37 145.475/437.950
HO-68 28 Apr 18:29:56 18:34:50 20° 52° (NE) 18:39:45 435.675
XW-2C 28 Apr 18:34:46 18:38:16 39° 71° (ENE) 18:41:48 145.795 - 145.815
LilacSat-2 28 Apr 18:36:17 18:39:51 43° 72° (ENE) 18:43:28 437.200
CUBESAT XI-V 28 Apr 18:48:26 18:53:09 70° 286° (WNW) 18:57:50 437.345
CUTE-I 28 Apr 18:55:41 19:00:59 69° 72° (ENE) 19:06:18 437.470
XW-2F 28 Apr 18:58:20 19:02:02 74° 76° (ENE) 19:05:46 145.980 - 146.000
NUDT-PHONESAT 28 Apr 19:02:57 19:06:35 68° 75° (ENE) 19:10:15 437.300
YUBILEINY 28 Apr 19:19:53 19:20:30 10° 291° (WNW) 19:21:07 435.215
KKS-1 28 Apr 19:24:47 19:28:40 30° 293° (WNW) 19:32:31 437.445
O/OREOS (USA 219) 28 Apr 19:30:09 19:33:33 20° 51° (NE) 19:36:54 437.305
DOVE 4 28 Apr 19:38:01 19:42:44 32° 265° (W) 19:47:24 437.250
RS-15 28 Apr 19:38:08 19:46:19 22° 262° (W) 19:54:17 29.354- 29.394
UWE-3 28 Apr 19:44:54 19:46:06 11° 60° (ENE) 19:47:17 435.000/436.395/437.385
AAUSAT CUBESAT 2 28 Apr 19:49:27 19:51:34 14° 62° (ENE) 19:53:42 437.432
STARS 28 Apr 19:49:58 19:53:57 35° 292° (WNW) 19:57:55 437.465
XW-2D 28 Apr 19:50:22 19:53:28 24° 265° (W) 19:56:35 145.860 - 145.880
XW-2B 28 Apr 19:57:37 20:00:30 21° 266° (W) 20:03:26 145.730 - 145.750
CUBEBUG 2 28 Apr 20:00:20 20:03:52 25° 67° (ENE) 20:07:20 437.445
KAITUO 1B 28 Apr 20:01:31 20:04:29 23° 266° (W) 20:07:29 145.475/437.950
CUTE 1.7 + AOD 2 28 Apr 20:06:02 20:10:10 59° 74° (ENE) 20:14:21 437.475
XW-2A 28 Apr 20:10:08 20:13:27 68° 77° (ENE) 20:16:48 145.665 - 145.685
XW-2C 28 Apr 20:10:23 20:12:40 15° 269° (W) 20:14:58 145.795 - 145.815
NO-84 28 Apr 20:12:00 20:15:41 61° 140° (SE) 20:19:04 435.350 FM
LilacSat-2 28 Apr 20:12:17 20:14:22 14° 269° (W) 20:16:29 437.200
HO-68 28 Apr 20:14:27 20:21:36 87° 72° (ENE) 20:28:50 435.675
STRAND 1 28 Apr 20:18:59 20:23:04 23° 93° (E) 20:27:06 437.568
SEEDS 28 Apr 20:21:35 20:25:41 57° 74° (ENE) 20:29:51 437.485
ZACube-1 28 Apr 20:32:56 20:35:59 20° 65° (ENE) 20:39:02 437.345
CUTE-I 28 Apr 20:38:09 20:41:33 17° 270° (W) 20:44:56 437.470
AO-73 28 Apr 20:38:20 20:41:25 21° 65° (ENE) 20:44:31 145.935
AO-85 28 Apr 20:45:54 20:49:12 25° 43° (NE) 20:52:35 145.980
Oscar 11 28 Apr 20:50:34 20:54:02 24° 66° (ENE) 20:57:31 .
O/OREOS (USA 219) 28 Apr 21:08:49 21:13:18 54° 251° (WSW) 21:17:44 437.305
UWE-3 28 Apr 21:17:43 21:21:57 81° 257° (WSW) 21:26:09 435.000/436.395/437.385
AAUSAT CUBESAT 2 28 Apr 21:22:24 21:26:30 63° 259° (WSW) 21:30:41 437.432
BEESAT 3 28 Apr 21:31:11 21:33:56 17° 38° (NE) 21:36:41 437.485
CUBEBUG 2 28 Apr 21:36:32 21:40:23 31° 264° (W) 21:44:11 437.445
BEESAT 2 28 Apr 21:36:38 21:37:40 11° 30° (NNE) 21:38:40 435.950
M-CUBED/EXP-1 PRIME 28 Apr 21:41:12 21:45:24 89° 321° (NW) 21:49:14 437.505
CUTE 1.7 + AOD 2 28 Apr 21:44:19 21:46:24 13° 271° (W) 21:48:29 437.475
DELFI C3 28 Apr 21:45:41 21:49:00 26° 68° (ENE) 21:52:22 145.870
NO-84 28 Apr 21:50:25 21:53:25 25° 336° (NNW) 21:56:13 435.350 FM
OBJECT BX 28 Apr 21:51:47 21:54:34 21° 67° (ENE) 21:57:22 145.990 - 145.960
STRAND 1 28 Apr 21:57:34 22:02:27 47° 291° (WNW) 22:07:19 437.568
SEEDS 28 Apr 21:59:36 22:01:45 14° 270° (W) 22:03:55 437.485
HO-68 28 Apr 22:05:30 22:10:12 18° 271° (W) 22:14:57 435.675
ZACube-1 28 Apr 22:08:06 22:12:02 39° 262° (W) 22:15:56 437.345
AO-73 28 Apr 22:13:34 22:17:27 37° 263° (W) 22:21:19 145.935
AO-85 28 Apr 22:25:59 22:29:41 39° 241° (WSW) 22:33:32 145.980
Oscar 11 28 Apr 22:26:05 22:30:01 34° 264° (W) 22:33:57 .
LO-87 28 Apr 22:48:25 22:50:25 14° 64° (ENE) 22:52:25 145.935 - 145.965
UNISAT 6 28 Apr 22:50:14 22:53:04 17° 92° (E) 22:55:54 437.425
PRISM 28 Apr 23:07:44 23:11:37 37° 98° (E) 23:15:27 437.425
BEESAT 3 28 Apr 23:07:57 23:11:59 71° 237° (WSW) 23:15:57 437.485
BEESAT 2 28 Apr 23:12:21 23:16:21 52° 51° (NE) 23:20:18 435.950
M-CUBED/EXP-1 PRIME 28 Apr 23:17:54 23:19:03 11° 309° (NW) 23:20:11 437.505
DELFI C3 28 Apr 23:20:18 23:23:43 27° 265° (W) 23:27:11 145.870
OBJECT BX 28 Apr 23:24:58 23:28:06 28° 264° (W) 23:31:17 145.990 - 145.960
NO-84 28 Apr 23:30:02 23:31:47 14° 357° (N) 23:33:30 435.350 FM
FO-29 28 Apr 23:40:37 23:45:35 42° 99° (E) 23:50:52 435.910
TIGRISAT 29 Apr 00:03:44 00:08:02 88° 296° (WNW) 00:12:23 435.000
ESTCUBE 1 29 Apr 00:11:31 00:16:00 73° 74° (ENE) 00:20:32 437.505/2401.250
VELOX 1 29 Apr 00:14:43 00:18:19 25° 65° (ENE) 00:21:56 145.980
QB50P2 29 Apr 00:16:44 00:17:55 11° 89° (E) 00:19:06 145.880/145.840
LO-87 29 Apr 00:20:01 00:23:30 44° 261° (W) 00:27:00 145.935 - 145.965
AIST 2D 29 Apr 00:22:45 00:25:26 20° 94° (E) 00:28:07 435.315
UNISAT 6 29 Apr 00:25:54 00:30:02 48° 288° (WNW) 00:34:13 437.425
NANOSAT C BR1 29 Apr 00:35:01 00:37:26 15° 91° (E) 00:39:51 145.865
50 SAT 29 Apr 00:38:28 00:41:02 19° 67° (ENE) 00:43:36 437.505
PRISM 29 Apr 00:43:31 00:46:40 21° 295° (WNW) 00:49:46 437.425
BEESAT 2 29 Apr 00:51:04 00:53:44 17° 249° (WSW) 00:56:23 435.950
SPROUT 29 Apr 00:57:21 01:01:32 58° 73° (ENE) 01:05:45 437.525
DX 1 29 Apr 00:58:08 01:01:49 27° 66° (ENE) 01:05:31 434.975-435.025
DUCHIFAT 1 29 Apr 01:02:32 01:06:04 26° 95° (E) 01:09:35 145.980
EO-79 29 Apr 01:03:25 01:07:13 32° 97° (E) 01:11:00 145.935-145.965
NO-84 29 Apr 01:07:51 01:10:15 20° 19° (NNE) 01:12:33 435.350 FM
FO-29 29 Apr 01:26:15 01:30:34 27° 296° (WNW) 01:35:04 435.910
PCSat 29 Apr 01:29:06 01:30:41 11° 101° (ESE) 01:32:15 145.827
POLYITAN 1 29 Apr 01:43:12 01:47:25 89° 114° (ESE) 01:51:37 437.675
TIGRISAT 29 Apr 01:43:28 01:44:03 10° 301° (WNW) 01:44:38 435.000
QB50P2 29 Apr 01:50:00 01:54:12 71° 285° (WNW) 01:58:23 145.880/145.840
VELOX 1 29 Apr 01:50:28 01:54:35 36° 263° (W) 01:58:44 145.980
ESTCUBE 1 29 Apr 01:51:27 01:53:19 12° 272° (W) 01:55:12 437.505/2401.250
BUGSAT 1 29 Apr 01:53:55 01:57:28 29° 97° (E) 02:01:00 437.445
UKube-1 29 Apr 01:55:05 01:59:24 72° 73° (ENE) 02:03:44 .
AIST 2D 29 Apr 01:55:39 01:58:39 26° 290° (WNW) 02:01:39 435.315
NANOSAT C BR1 29 Apr 02:09:23 02:13:28 52° 288° (WNW) 02:17:31 145.865
50 SAT 29 Apr 02:10:45 02:13:47 28° 263° (W) 02:16:52 437.505
BEESAT 29 Apr 02:13:44 02:15:41 12° 57° (ENE) 02:17:40 436.000
Oscar 19 29 Apr 02:32:25 02:36:56 29° 95° (E) 02:41:24 437.125/150
DX 1 29 Apr 02:33:58 02:37:54 32° 263° (W) 02:41:51 434.975-435.025
SPROUT 29 Apr 02:35:36 02:37:49 14° 270° (W) 02:40:03 437.525
DUCHIFAT 1 29 Apr 02:38:06 02:41:43 29° 292° (WNW) 02:45:20 145.980
EO-79 29 Apr 02:39:26 02:42:50 24° 294° (WNW) 02:46:13 145.935-145.965
NO-84 29 Apr 02:45:05 02:48:02 67° 220° (SW) 02:50:51 435.350 FM
ITUPSAT 1 29 Apr 02:53:41 02:57:41 28° 65° (ENE) 03:01:42 437.325
Gurwin Techsat 1B 29 Apr 02:54:54 02:59:27 28° 94° (E) 03:03:57 435.225
PCSat 29 Apr 03:07:44 03:13:08 78° 119° (ESE) 03:18:35 145.827
MOZHAYETS 4 29 Apr 03:19:11 03:22:46 23° 65° (ENE) 03:26:21
POLYITAN 1 29 Apr 03:21:55 03:22:31 10° 301° (WNW) 03:23:07 437.675
BUGSAT 1 29 Apr 03:29:28 03:32:43 24° 293° (WNW) 03:35:57 437.445
